When you browse on this site, cookies collect data to enhance your experience and personalize the content and advertising you see.
Visit our Privacy Policy to learn more. By continuing to use the site, you agree to this use of cookies and data.
  • In Romania
  • List of Countries
  • For 7 days
  • Water Temperature
  • Satellite Maps
  • Weather Map
  • Weather Widgets
  • user-avatar
    Login

    Hourly Weather Semive

    Today, 23 July, Tuesday

    Time Temperature Precipitation Wind Pressure Humidity
    00:00 +16°C° 0 mm 1 mps 739 mmHg 91%
    01:00 +16°C° 0 mm 1 mps 739 mmHg 93%
    02:00 +15°C° 0 mm 1 mps 739 mmHg 95%
    03:00 +15°C° 0 mm 1 mps 738 mmHg 94%
    04:00 +15°C° 0 mm 1 mps 738 mmHg 94%
    05:00 +16°C° 0 mm 1 mps 738 mmHg 93%
    06:00 +18°C° 0.1 mm 1 mps 738 mmHg 90%
    07:00 +19°C° 0.1 mm 1 mps 738 mmHg 88%
    08:00 +18°C° 0.1 mm 2 mps 738 mmHg 85%
    09:00 +19°C° 0.5 mm 2 mps 738 mmHg 84%
    10:00 +20°C° 0.5 mm 2 mps 738 mmHg 82%
    11:00 +21°C° 0.5 mm 2 mps 738 mmHg 81%
    12:00 +21°C° 0.7 mm 2 mps 738 mmHg 80%
    13:00 +21°C° 0.7 mm 2 mps 738 mmHg 79%
    14:00 +23°C° 0.7 mm 2 mps 738 mmHg 79%
    15:00 +21°C° 0.5 mm 2 mps 739 mmHg 80%
    16:00 +21°C° 0.5 mm 2 mps 739 mmHg 81%
    17:00 +21°C° 0.5 mm 2 mps 739 mmHg 83%
    18:00 +20°C° 0.3 mm 2 mps 739 mmHg 86%
    19:00 +18°C° 0.3 mm 2 mps 739 mmHg 89%
    20:00 +17°C° 0.3 mm 2 mps 739 mmHg 91%
    21:00 +16°C° 0 mm 2 mps 739 mmHg 92%
    22:00 +15°C° 0 mm 2 mps 739 mmHg 93%
    23:00 +15°C° 0 mm 2 mps 739 mmHg 94%

    Tomorrow, 24 July, Wednesday

    Time Temperature Precipitation Wind Pressure Humidity
    00:00 +14°C° 0 mm 2 mps 739 mmHg 94%
    01:00 +14°C° 0 mm 2 mps 740 mmHg 94%
    02:00 +13°C° 0 mm 2 mps 740 mmHg 95%
    03:00 +13°C° 0 mm 2 mps 740 mmHg 94%
    04:00 +13°C° 0 mm 2 mps 740 mmHg 94%
    05:00 +13°C° 0 mm 2 mps 740 mmHg 93%
    06:00 +15°C° 0 mm 2 mps 740 mmHg 85%
    07:00 +17°C° 0 mm 2 mps 740 mmHg 77%
    08:00 +19°C° 0 mm 3 mps 741 mmHg 70%
    09:00 +20°C° 0 mm 3 mps 741 mmHg 63%
    10:00 +21°C° 0 mm 3 mps 741 mmHg 56%
    11:00 +22°C° 0 mm 4 mps 741 mmHg 49%
    12:00 +23°C° 0 mm 4 mps 741 mmHg 48%
    13:00 +23°C° 0 mm 5 mps 741 mmHg 48%
    14:00 +23°C° 0 mm 5 mps 741 mmHg 48%
    15:00 +22°C° 0 mm 5 mps 741 mmHg 51%
    16:00 +22°C° 0 mm 5 mps 741 mmHg 54%
    17:00 +21°C° 0 mm 5 mps 741 mmHg 56%
    18:00 +19°C° 0 mm 4 mps 741 mmHg 63%
    19:00 +17°C° 0 mm 3 mps 741 mmHg 70%
    20:00 +16°C° 0 mm 3 mps 740 mmHg 77%
    21:00 +14°C° 0 mm 3 mps 740 mmHg 81%
    22:00 +13°C° 0 mm 3 mps 741 mmHg 85%
    23:00 +12°C° 0 mm 3 mps 741 mmHg 88%

    Day after tomorrow, 25 July, Thursday

    Time Temperature Precipitation Wind Pressure Humidity
    00:00 +12°C° 0 mm 3 mps 740 mmHg 88%
    01:00 +12°C° 0 mm 3 mps 740 mmHg 89%
    02:00 +11°C° 0 mm 3 mps 740 mmHg 89%
    03:00 +11°C° 0 mm 3 mps 740 mmHg 90%
    04:00 +11°C° 0 mm 3 mps 740 mmHg 91%
    05:00 +11°C° 0 mm 3 mps 740 mmHg 92%
    06:00 +11°C° 0.4 mm 3 mps 740 mmHg 93%
    07:00 +12°C° 0.4 mm 3 mps 740 mmHg 94%
    08:00 +12°C° 0.4 mm 3 mps 739 mmHg 95%
    09:00 +12°C° 0.7 mm 3 mps 740 mmHg 96%
    10:00 +13°C° 0.7 mm 2 mps 740 mmHg 97%
    11:00 +13°C° 0.7 mm 2 mps 740 mmHg 97%
    12:00 +15°C° 0 mm 2 mps 740 mmHg 92%
    13:00 +18°C° 0 mm 1 mps 740 mmHg 86%
    14:00 +20°C° 0 mm 1 mps 740 mmHg 80%
    15:00 +21°C° 0.1 mm 1 mps 740 mmHg 79%
    16:00 +20°C° 0.1 mm 2 mps 741 mmHg 77%
    17:00 +21°C° 0.1 mm 2 mps 741 mmHg 76%
    18:00 +20°C° 0.4 mm 2 mps 741 mmHg 82%
    19:00 +19°C° 0.4 mm 2 mps 741 mmHg 88%
    20:00 +18°C° 0.4 mm 2 mps 741 mmHg 94%
    21:00 +17°C° 0 mm 2 mps 741 mmHg 95%
    22:00 +17°C° 0 mm 3 mps 742 mmHg 96%
    23:00 +17°C° 0 mm 3 mps 742 mmHg 97%

    26 July, Friday

    Time Temperature Precipitation Wind Pressure Humidity
    00:00 +17°C° 0 mm 3 mps 742 mmHg 97%
    01:00 +17°C° 0 mm 3 mps 742 mmHg 97%
    02:00 +17°C° 0 mm 3 mps 743 mmHg 97%
    03:00 +17°C° 0 mm 3 mps 743 mmHg 97%
    04:00 +16°C° 0 mm 3 mps 743 mmHg 97%
    05:00 +16°C° 0 mm 3 mps 743 mmHg 97%
    06:00 +18°C° 0 mm 3 mps 744 mmHg 91%
    07:00 +19°C° 0 mm 4 mps 744 mmHg 86%
    08:00 +20°C° 0 mm 5 mps 744 mmHg 80%
    09:00 +22°C° 0 mm 4 mps 744 mmHg 73%
    10:00 +23°C° 0 mm 4 mps 744 mmHg 66%
    11:00 +26°C° 0 mm 4 mps 745 mmHg 59%
    12:00 +27°C° 0 mm 4 mps 744 mmHg 56%
    13:00 +28°C° 0 mm 4 mps 744 mmHg 54%
    14:00 +28°C° 0 mm 4 mps 744 mmHg 51%
    15:00 +28°C° 0 mm 4 mps 744 mmHg 55%
    16:00 +28°C° 0 mm 3 mps 744 mmHg 58%
    17:00 +27°C° 0 mm 2 mps 744 mmHg 62%
    18:00 +26°C° 0.1 mm 2 mps 744 mmHg 69%
    19:00 +24°C° 0.1 mm 2 mps 744 mmHg 77%
    20:00 +21°C° 0.1 mm 2 mps 744 mmHg 84%
    21:00 +20°C° 0 mm 2 mps 744 mmHg 87%
    22:00 +19°C° 0 mm 2 mps 744 mmHg 90%
    23:00 +18°C° 0 mm 2 mps 744 mmHg 93%

    27 July, Saturday

    Time Temperature Precipitation Wind Pressure Humidity
    00:00 +18°C° 0 mm 2 mps 744 mmHg 93%
    01:00 +17°C° 0 mm 2 mps 744 mmHg 94%
    02:00 +17°C° 0 mm 2 mps 744 mmHg 95%
    03:00 +17°C° 0 mm 2 mps 744 mmHg 94%
    04:00 +17°C° 0 mm 2 mps 744 mmHg 93%
    05:00 +17°C° 0 mm 2 mps 744 mmHg 91%
    06:00 +19°C° 0 mm 2 mps 744 mmHg 85%
    07:00 +21°C° 0 mm 2 mps 744 mmHg 78%
    08:00 +24°C° 0 mm 2 mps 744 mmHg 71%
    09:00 +25°C° 0 mm 2 mps 744 mmHg 66%
    10:00 +27°C° 0 mm 2 mps 744 mmHg 60%
    11:00 +28°C° 0 mm 3 mps 744 mmHg 55%
    12:00 +28°C° 0.4 mm 3 mps 743 mmHg 59%
    13:00 +28°C° 0.4 mm 3 mps 743 mmHg 63%
    14:00 +27°C° 0.4 mm 3 mps 742 mmHg 68%
    15:00 +27°C° 0.1 mm 3 mps 742 mmHg 65%
    16:00 +27°C° 0.1 mm 3 mps 742 mmHg 62%
    17:00 +27°C° 0.1 mm 3 mps 742 mmHg 59%
    18:00 +26°C° 0 mm 3 mps 742 mmHg 65%
    19:00 +24°C° 0 mm 3 mps 741 mmHg 71%
    20:00 +21°C° 0 mm 2 mps 741 mmHg 76%
    21:00 +20°C° 0 mm 2 mps 741 mmHg 80%
    22:00 +19°C° 0 mm 2 mps 741 mmHg 83%
    23:00 +18°C° 0 mm 2 mps 741 mmHg 87%

    28 July, Sunday

    Time Temperature Precipitation Wind Pressure Humidity
    00:00 +18°C° 0 mm 2 mps 741 mmHg 88%
    01:00 +18°C° 0 mm 2 mps 740 mmHg 89%
    02:00 +18°C° 0 mm 2 mps 740 mmHg 90%
    03:00 +18°C° 0 mm 3 mps 740 mmHg 91%
    04:00 +18°C° 0 mm 3 mps 740 mmHg 93%
    05:00 +18°C° 0 mm 3 mps 740 mmHg 94%
    06:00 +18°C° 0 mm 3 mps 741 mmHg 89%
    07:00 +19°C° 0 mm 3 mps 741 mmHg 84%
    08:00 +19°C° 0 mm 4 mps 741 mmHg 79%
    09:00 +19°C° 0 mm 4 mps 741 mmHg 76%
    10:00 +19°C° 0 mm 4 mps 742 mmHg 72%
    11:00 +19°C° 0 mm 4 mps 742 mmHg 68%
    12:00 +20°C° 0 mm 4 mps 742 mmHg 63%
    13:00 +20°C° 0 mm 4 mps 742 mmHg 58%
    14:00 +21°C° 0 mm 4 mps 742 mmHg 53%
    15:00 +21°C° 0 mm 4 mps 742 mmHg 51%
    16:00 +21°C° 0 mm 4 mps 742 mmHg 48%
    17:00 +21°C° 0 mm 4 mps 743 mmHg 45%
    18:00 +19°C° 0 mm 3 mps 743 mmHg 53%
    19:00 +17°C° 0 mm 3 mps 743 mmHg 61%
    20:00 +15°C° 0 mm 2 mps 743 mmHg 68%
    21:00 +13°C° 0 mm 2 mps 743 mmHg 71%
    22:00 +12°C° 0 mm 2 mps 744 mmHg 73%
    23:00 +10°C° 0 mm 2 mps 744 mmHg 75%
    Show more